Theta_e
304 305 308 308 308 306 303 302 305 307 305 305 303 302 301 301 301 302 302 305 308 307 306 304 305 303 306 312 316 322 327 328 326 326 327 326 327 327 330 330 333 334 333 332 331
303 304 306 308 305 304 304 304 304 304 304 303 303 301 302 302 302 304 306 304 303 304 301 302 304 306 305 311 314 319 323 324 323 324 325 325 326 326 328 331 334 335 333 332 330
303 304 304 304 304 304 304 304 303 302 302 302 302 301 302 302 303 302 306 306 306 304 299 300 303 306 307 306 308 314 321 321 321 322 324 325 324 325 328 329 330 333 333 332 330
302 303 303 303 303 304 304 303 301 301 302 302 301 302 302 302 304 301 303 304 300 299 301 302 307 307 307 307 307 309 311 317 318 321 322 325 325 326 326 328 329 332 333 333 332
302 302 302 302 302 301 301 301 301 301 301 301 301 302 302 304 303 300 298 298 297 302 304 306 308 307 308 306 306 307 307 308 312 313 316 320 324 326 326 326 326 328 327 330 332
301 301 301 301 301 300 300 300 300 300 300 300 302 303 304 304 301 298 298 299 300 303 302 304 307 308 307 308 309 308 308 308 307 309 312 315 321 322 325 325 325 328 327 330 331
301 300 300 300 300 300 301 301 302 302 301 302 303 304 304 304 300 299 299 299 300 302 303 302 301 305 306 306 306 307 309 308 308 306 308 313 318 322 322 325 326 326 328 329 329
300 300 300 300 301 301 301 301 300 300 301 302 303 304 304 300 299 299 299 300 301 301 301 302 302 302 305 305 306 306 306 307 307 308 306 312 319 320 321 322 324 326 326 328 328
300 300 300 300 301 300 300 300 300 300 300 300 303 303 302 299 299 299 300 300 300 301 302 302 303 303 304 306 306 305 306 305 307 307 308 311 314 316 318 321 322 325 326 327 330
300 300 300 300 300 300 300 300 300 300 299 299 300 302 301 299 299 299 299 300 301 301 302 303 303 304 304 305 306 304 305 305 306 307 308 308 311 315 318 320 322 323 324 326 327
300 300 300 300 300 300 300 300 300 300 299 299 299 299 299 299 299 300 299 300 301 303 304 304 304 304 303 304 303 302 302 303 303 305 308 312 312 310 314 317 322 323 323 324 326
299 299 300 300 300 300 300 299 298 299 300 299 299 299 299 300 301 300 299 302 303 304 304 304 305 303 303 302 302 302 303 304 304 304 305 305 309 313 314 314 318 321 324 325 326
299 299 299 299 299 300 300 299 298 299 300 300 298 298 301 300 299 298 299 302 303 303 304 305 303 302 303 304 304 304 304 303 304 304 304 306 309 311 314 318 317 319 321 324 325
299 299 298 298 299 299 299 298 299 300 302 300 298 300 299 298 299 297 299 302 303 303 304 305 304 304 304 304 304 305 304 303 304 305 306 306 310 311 314 318 319 321 320 322 324
299 298 298 298 298 299 298 299 300 298 302 297 298 298 298 298 297 299 300 301 302 302 303 305 304 304 306 305 304 305 304 304 304 306 306 306 310 311 314 316 318 320 321 323 325
298 298 298 298 298 299 298 298 298 301 300 298 298 298 299 298 298 298 299 299 300 303 304 305 303 304 304 304 304 305 305 305 306 307 308 306 306 311 317 318 318 319 320 321 324
298 297 298 298 299 298 298 298 302 302 296 299 298 299 297 297 298 298 298 299 303 304 303 302 303 306 304 307 306 306 305 304 307 309 307 306 307 309 313 317 316 318 318 320 322
297 297 297 298 299 298 298 300 299 293 294 296 298 297 297 296 298 297 298 299 302 303 302 302 302 306 303 306 307 307 306 306 306 309 308 307 310 314 312 312 317 317 317 319 322
297 297 298 299 298 298 298 301 298 295 297 298 298 297 297 296 297 297 298 298 300 300 301 300 302 302 304 304 307 307 307 306 310 315 314 319 318 318 319 317 317 320 321 320 321
297 297 298 297 297 298 301 299 295 294 296 296 298 296 298 298 298 298 297 299 299 299 298 301 302 302 305 303 305 306 306 306 311 313 319 318 320 322 321 320 320 320 322 323 323
297 297 297 297 297 296 300 296 292 295 296 297 297 298 298 298 298 298 298 298 298 298 298 300 302 303 305 308 309 309 308 309 308 310 318 320 320 317 318 318 318 319 321 323 327
297 299 297 296 297 287 297 292 294 297 296 297 297 297 298 297 298 297 298 298 298 297 299 299 300 303 306 304 305 310 311 310 315 320 317 320 322 314 315 315 318 319 322 324 327
296 296 296 296 300 297 292 293 295 297 297 297 298 298 296 297 297 295 297 297 297 296 299 298 301 306 306 308 307 309 311 312 312 313 321 323 322 311 312 313 318 316 314 316 320
296 300 294 295 294 294 294 293 295 295 296 296 297 297 296 294 295 297 296 296 295 296 297 297 300 305 304 305 304 307 309 312 316 320 319 316 316 311 310 310 310 309 308 309 310
295 292 292 297 295 294 293 293 295 297 296 296 296 295 295 295 294 293 294 294 296 297 296 297 298 301 301 301 306 307 308 309 311 310 315 314 311 309 309 309 307 306 305 305 305
295 294 291 289 291 294 294 294 296 297 296 296 295 295 294 294 294 293 294 295 296 296 296 296 298 299 301 307 306 306 303 306 305 304 309 309 308 303 302 306 306 306 305 304 303
296 295 295 289 293 294 296 295 296 295 294 295 295 294 293 293 293 294 294 294 295 296 296 297 297 299 303 304 305 308 302 303 305 301 303 307 305 302 301 301 304 304 304 303 302
Wind_Speed
8 8 8 8 9 11 11 10 12 14 16 16 17 18 20 21 21 18 8 2 6 10 14 16 14 10 8 10 14 11 10 19 27 24 21 22 18 14 8 12 10 10 4 6 16
8 7 8 8 10 10 11 11 11 13 14 16 17 18 20 20 21 4 1 4 10 15 19 17 14 12 5 7 8 14 14 25 21 18 16 26 24 19 15 14 11 9 9 9 19
9 10 10 10 9 8 9 10 11 13 14 15 17 19 20 20 18 3 4 10 12 17 15 14 10 5 5 8 16 11 24 18 17 27 16 23 28 27 17 18 20 17 17 16 22
12 9 8 7 7 8 9 11 12 12 14 15 16 18 20 18 6 5 10 13 14 11 10 9 3 4 4 8 9 19 25 16 14 20 17 16 24 27 28 18 8 11 14 19 25
10 8 8 8 8 9 11 12 12 13 14 15 15 18 19 10 11 7 9 10 15 9 6 5 6 7 8 6 11 17 17 25 23 21 19 20 23 19 24 28 16 10 11 17 24
7 8 8 9 10 11 12 13 14 14 14 15 14 17 16 12 9 11 14 10 9 7 5 5 5 7 11 13 12 12 16 18 22 22 18 18 21 16 18 23 24 18 17 17 22
8 9 9 10 11 12 13 13 15 15 14 15 14 15 15 20 11 4 9 15 10 13 13 11 10 8 6 10 11 14 16 15 18 21 16 16 22 29 27 23 25 22 18 16 17
8 10 11 12 13 14 14 14 16 18 16 16 14 10 11 19 6 3 19 16 12 14 19 16 13 14 14 13 17 16 16 17 9 12 21 12 19 21 29 30 28 26 26 21 21
9 10 11 12 13 15 15 16 17 16 14 13 10 7 12 6 9 22 18 20 19 17 18 14 7 11 11 12 13 13 14 16 14 15 15 22 24 22 27 25 31 34 27 24 23
9 10 12 13 15 17 18 20 13 14 4 8 4 4 6 7 25 22 22 20 17 11 9 7 8 10 12 13 15 11 15 14 16 9 15 23 28 18 18 28 29 30 37 30 27
10 11 12 14 17 17 22 18 12 4 18 9 16 15 24 18 16 22 26 14 10 3 5 9 9 17 22 19 22 19 18 19 19 17 15 17 20 26 29 23 21 28 31 35 35
11 12 14 15 16 15 17 12 9 10 12 15 7 10 12 11 14 22 13 4 3 11 8 9 19 20 18 17 20 23 23 23 22 23 15 22 23 20 22 31 31 29 29 29 29
12 13 14 16 13 16 13 16 15 10 5 8 8 6 6 13 18 28 5 6 11 15 17 19 22 12 17 20 20 24 23 23 20 15 15 17 22 23 21 20 34 38 34 29 32
13 14 15 16 8 14 10 17 15 9 3 4 3 2 6 21 8 14 11 6 6 14 14 14 18 18 23 27 20 23 27 21 18 12 10 14 10 20 23 22 18 30 36 37 32
13 15 16 15 12 12 14 16 11 2 5 9 5 6 22 8 14 3 9 8 16 19 12 19 22 24 23 29 23 21 16 18 18 18 17 18 9 9 20 26 25 26 37 33 35
14 16 16 15 12 12 14 15 3 2 4 5 5 14 15 6 6 9 9 12 15 11 14 19 32 21 26 23 23 9 12 9 11 12 11 20 12 11 16 25 21 24 37 39 35
15 16 16 15 11 11 14 7 2 0 6 8 9 16 15 8 10 9 15 11 6 9 14 24 8 6 6 9 13 15 13 5 8 7 10 8 12 18 15 15 24 23 31 39 39
15 16 16 11 9 12 11 1 3 3 4 5 8 16 6 11 7 15 10 8 5 13 15 10 17 3 2 5 5 19 16 7 9 8 6 14 9 10 24 27 16 28 31 37 42
15 15 8 7 11 11 4 3 1 3 4 9 12 5 4 3 7 9 8 6 6 11 9 8 10 7 9 12 5 10 13 21 6 1 5 6 7 11 7 11 15 18 22 27 35
15 10 3 11 12 6 3 2 2 3 4 2 4 2 6 9 10 12 6 5 9 13 22 6 17 11 9 2 12 7 13 9 6 4 7 6 5 6 8 12 7 13 15 24 31
12 4 5 11 6 3 2 2 4 3 3 2 3 6 7 7 11 7 6 11 9 16 23 17 6 15 13 2 7 5 12 9 7 8 4 4 4 4 2 4 6 8 18 24 28
5 2 6 10 3 2 0 2 2 4 2 3 4 5 4 7 8 5 6 6 19 22 14 6 6 8 21 9 1 4 7 14 5 8 6 2 1 9 8 9 10 9 17 24 23
6 2 4 5 2 2 3 4 4 2 2 2 4 3 1 5 7 5 6 9 18 22 11 12 5 9 7 3 8 5 6 3 14 2 3 3 1 9 7 7 8 8 18 25 29
3 1 4 5 4 1 2 2 5 4 4 5 9 7 4 5 6 8 17 10 34 19 18 16 5 6 6 13 13 11 19 11 3 2 1 3 5 13 10 9 7 9 21 24 24
3 2 2 2 2 1 0 1 3 4 3 3 2 2 6 5 14 3 7 22 13 6 20 7 6 11 17 14 6 9 17 18 9 10 6 7 6 11 10 8 9 13 22 25 23
2 1 2 0 2 4 1 2 3 4 3 3 2 7 8 7 10 18 15 15 8 9 16 7 5 14 4 3 6 19 22 17 20 16 11 11 8 11 13 16 18 18 22 26 23
1 2 1 0 2 2 1 2 3 8 4 8 3 12 10 11 15 21 23 25 22 16 12 7 8 6 6 13 13 1 21 11 7 17 11 10 6 9 15 16 19 22 25 29 24
Wind_Direction
346 342 332 341 347 346 341 333 331 329 329 326 327 327 324 326 327 340 337 5 359 343 340 345 356 307 277 253 246 242 240 236 233 234 241 231 241 226 242 222 193 194 215 235 188
351 355 8 1 8 353 345 336 326 322 323 325 326 324 322 328 330 328 326 332 328 322 324 330 335 343 281 247 232 227 235 241 244 236 245 239 234 238 226 218 206 185 209 181 177
31 32 24 13 360 351 333 329 330 331 328 326 326 321 322 331 327 216 254 293 309 311 321 323 323 324 277 256 238 246 243 257 256 245 255 260 241 230 227 234 229 209 189 185 184
39 29 14 7 357 352 346 340 338 335 331 326 324 318 321 327 313 277 288 290 304 319 321 318 305 288 279 260 251 257 259 264 284 281 295 274 249 235 226 218 221 216 199 193 194
29 29 15 7 8 5 1 351 344 337 328 323 320 315 321 310 281 290 287 293 303 315 322 315 281 281 266 275 289 266 272 271 271 280 290 277 257 261 237 227 228 226 210 206 205
26 27 23 13 8 7 0 350 337 330 323 318 316 314 314 288 300 299 304 313 306 298 309 305 279 279 283 269 263 291 295 287 275 268 272 290 275 256 241 240 241 223 221 205 207
23 20 20 11 5 2 353 341 333 324 315 309 306 301 292 272 298 319 326 318 306 291 283 273 276 254 273 279 279 281 285 287 274 260 258 284 275 244 237 236 239 226 222 212 213
19 13 10 7 360 350 343 339 330 314 303 296 292 298 275 301 281 314 316 307 305 289 281 281 274 253 244 262 275 278 277 270 268 248 236 207 259 253 235 233 232 232 226 222 218
13 8 5 360 349 344 341 334 325 311 301 289 278 279 272 307 293 316 310 303 296 292 282 280 238 236 228 239 266 237 258 255 266 249 252 210 248 245 260 228 231 231 227 218 213
0 3 358 351 345 340 341 338 322 309 329 312 299 286 271 313 302 302 314 304 287 284 283 232 214 227 222 220 240 250 241 253 259 260 238 245 244 241 258 239 228 230 227 223 220
357 357 350 346 344 342 345 354 353 307 315 273 283 274 287 307 307 308 315 294 284 247 251 215 225 230 235 227 246 268 272 269 267 264 280 266 269 244 237 248 255 233 231 227 227
352 349 347 343 341 347 350 28 358 316 307 321 320 280 308 315 301 310 303 257 218 271 263 248 249 257 262 257 247 252 257 256 264 261 260 261 270 272 249 234 232 235 231 228 223
345 346 347 340 338 345 358 0 346 334 293 308 331 314 319 317 303 303 268 282 256 270 257 254 257 270 250 247 243 248 247 250 246 269 263 267 269 265 251 237 230 235 233 228 223
342 346 347 345 353 346 344 343 340 333 312 330 341 313 314 323 283 316 280 255 248 274 285 267 268 259 246 251 235 246 238 252 259 260 253 199 264 238 222 225 225 232 228 229 226
342 344 346 350 342 347 336 334 335 350 311 338 302 303 319 309 298 332 325 283 272 272 286 266 288 286 247 234 219 242 250 238 238 237 259 252 267 267 215 219 219 220 224 222 220
342 339 342 342 338 339 339 329 341 278 276 337 313 323 335 318 314 300 311 301 273 286 275 260 275 266 256 251 222 219 241 188 234 229 237 240 221 252 213 215 210 215 215 219 220
338 335 337 336 335 340 336 321 317 257 16 335 327 327 327 322 328 324 322 319 324 316 319 311 269 269 265 209 207 197 171 214 219 202 242 223 216 245 260 232 215 212 214 212 213
334 333 334 339 348 338 332 341 16 40 291 329 316 315 308 358 345 326 313 335 323 333 311 327 316 14 41 250 180 187 186 194 201 203 237 196 231 226 237 239 241 228 221 210 207
333 334 340 357 342 335 323 45 300 232 308 328 313 311 312 338 335 329 317 303 326 349 335 299 273 270 247 230 208 168 209 227 323 139 230 200 243 260 203 208 217 222 218 212 208
335 331 325 348 344 352 66 332 262 251 325 334 313 283 309 340 336 337 315 300 332 334 339 279 294 310 319 139 202 201 185 195 225 249 208 195 224 228 190 201 204 227 218 210 204
335 316 332 351 349 24 69 250 272 269 243 229 269 276 270 320 312 319 280 301 357 335 326 314 268 294 320 339 170 198 189 219 213 242 314 151 217 28 303 278 262 264 231 209 196
327 312 349 353 359 37 7 214 291 275 245 266 248 264 279 315 291 287 264 291 340 339 324 317 292 294 314 311 267 250 187 210 217 189 215 297 146 3 322 294 274 263 230 198 189
329 303 4 21 37 351 326 290 267 268 277 277 279 254 301 294 305 231 291 306 326 333 346 343 303 310 1 334 43 330 294 226 234 273 211 223 106 7 350 336 228 136 117 134 150
339 358 32 51 84 122 342 303 304 260 258 263 279 300 349 281 250 283 302 316 325 314 345 331 281 300 287 290 308 313 333 321 310 274 43 47 334 346 356 15 50 81 112 122 132
6 86 67 332 51 297 144 297 291 323 248 295 289 286 329 288 302 250 294 323 305 303 335 338 282 304 302 288 295 356 17 24 20 8 38 348 11 354 2 43 60 84 94 98 107
341 136 86 160 306 291 239 254 304 332 283 291 269 313 297 268 269 297 309 324 309 311 326 338 292 320 297 299 348 30 12 18 26 6 15 10 44 353 4 60 64 70 89 88 92
174 145 173 212 282 281 237 278 303 334 285 252 306 306 290 272 290 291 286 279 272 291 316 311 319 329 294 329 326 35 10 354 15 28 354 20 351 347 35 44 50 61 78 83 85